Regional Weather Roundup
Issued by NWS Sioux Falls, SD

Home | Current Version | Previous Version | Text Only | Print | Product List | Glossary On
Versions: 1 2 3 4 5 6 7 8 9 10 11 12 13 14 15 16 17 18 19 20 21 22 23 24 25 26 27 28 29 30 31 32 33 34 35 36 37 38 39 40 41 42 43 44 45 46 47 48 49 50
000
ASUS43 KFSD 041010
RWRFSD

WEATHER ROUNDUP FOR SE SOUTH DAKOTA/SW MINNESOTA/NW IOWA
NATIONAL WEATHER SERVICE SIOUX FALLS SD
500 AM CDT SAT JUL 04 2015

NOTE: "FAIR" INDICATES FEW OR NO CLOUDS BELOW 12,000 FEET WITH NO
SIGNIFICANT WEATHER AND OR OBSTRUCTIONS TO VISIBILITY.


SDZ038>040-050-052>070-041100-
SOUTHEAST SOUTH DAKOTA

CITY           SKY/WX    TMP DP  RH WIND       PRES   REMARKS
BROOKINGS      CLEAR     63  59  88 SE5       29.98F
CHAMBERLAIN    CLEAR     62  62  98 CALM      29.92F
HURON          CLEAR     63  62  97 SE6       29.91F FOG
MADISON        FAIR      63  63 100 S5        29.97F
MITCHELL       CLEAR     64  63  96 SE7       29.94F FOG
SIOUX FALLS    CLEAR     63  59  87 SW3       29.97S
WINNER         FAIR      69  60  73 S16       29.91F
YANKTON          N/A     59  57  94 E5        29.96S VSB 1/4
$$

MNZ071-072-080-081-089-090-097-098-041100-
SOUTHWEST MINNESOTA

CITY           SKY/WX    TMP DP  RH WIND       PRES   REMARKS
FAIRMONT       CLEAR     63  54  72 W5        29.97R
JACKSON        CLEAR     63  55  77 SW6       29.99R
LUVERNE          N/A     61  59  94 CALM      29.99
MARSHALL       CLEAR     66  61  82 W8          N/A
MONTEVIDEO     CLEAR     63  61  94 CALM      29.94R FOG
PIPESTONE        N/A     63  61  94 CALM      29.98S FOG
REDWOOD FALLS  CLEAR     63  61  93 S5        29.93F FOG
TRACY          CLEAR     67  64  90 SW8       29.96S FOG
WINDOM         CLEAR     63  57  82 SW5       29.98R FOG
WORTHINGTON    CLEAR     64  54  68 SW8       29.99R
$$

IAZ001>003-012>014-020>022-031-032-NEZ013-014-SDZ071-041100-
NORTHWEST IOWA

CITY           SKY/WX    TMP DP  RH WIND       PRES   REMARKS
CHEROKEE       CLEAR     54  54 100 CALM      29.99S FOG
DENISON        CLOUDY    54  54 100 CALM      29.98S
ESTHERVILLE    CLEAR     58  56  93 W6        29.98R
LE MARS          N/A     55  55 100 CALM      29.99S FOG
ORANGE CITY    CLEAR     57  54  88 CALM      29.99S
SHELDON        MOCLDY    59  59 100 SW5       29.98R
SIOUX CITY     CLEAR     59  55  87 E3        29.99R
SPENCER        CLEAR     58  52  80 CALM      29.98S
STORM LAKE     CLEAR     59  54  82 SW7       30.00S
$$

ABBREVIATIONS USED IN REMARKS
   TC - TEMPERATURE IN CELSIUS
  WCI - WIND CHILL INDEX
   HX - HEAT INDEX
  VSB - VISIBILITY



USA.gov is the U.S. government's official web portal to all federal, state and local government web resources and services.